Weather in Bonito

Brazil     8°27′46″S   35°43′19″W
temp.,
°C
wind,
m/s
gust,
m/s
humid.,
%
clouds,
%
prec.,
mm/h
press.,
hPa
HPBL,
m
27 february, sat
sat2700:00+21ne11945 0.1 101223
03:00+21ene01932 0.1 101123
06:00+21e119235 0.0 101256
09:00+26ese346840 0.0 1013888
12:00+27ese556479 1.9 1011943
15:00+27ese566489 5.4 10091070
18:00+23ese488299 0.5 1010459
21:00+22ese259099 0.5 1012302
28 february, sun
sun2800:00+21e119295 0.0 101126
03:00+21ene019448 0.1 101023
06:00+21se11930 0.0 101176
09:00+26ese456735 0.1 1012914
12:00+28ese566045 1.2 10101127
15:00+28ese665639 3.1 10081419
18:00+24ese58788 0.0 1009576
21:00+22ese25948 0.2 1011291
1 march, mon
mon100:00+21ese259743 0.8 1010237
03:00+21ese119732 0.9 100823
06:00+21se129630 0.1 1009138
09:00+25ese347242 1.1 1011804
12:00+27ese676866 5.4 10101084
15:00+26ese797275 9.2 10081024
18:00+22ese4888100 1.3 1010575
21:00+21e369455 1.6 1011319
2 march, tue
tue200:00+21e12969 0.1 101136
03:00+20wsw009710 0.3 101023
06:00+21sse11942 0.1 101155
09:00+26ese346311 0.1 1013977
12:00+30ese44430 0.0 10121738
15:00+29e654921 0.1 10101622
18:00+23e598335 3.0 1012485
21:00+22ese379142 3.3 1013424
3 march, wed
wed300:00+21e129618 0.1 101398
03:00+21e119636 0.1 101224
06:00+21ene119445 0.0 101354
09:00+26ese346641 0.0 10141022
12:00+29ese555490 0.2 10141463
15:00+29ese555881 0.7 10121214
18:00+23ese478930 2.2 1013485
21:00+22ese369754 2.4 1014388